Regional Weather Roundup
Issued by NWS

Home | Current Version | Previous Version | Graphics & Text | Print | Product List | Glossary On
Versions: 1 2 3 4 5 6 7 8 9 10 11 12 13 14 15 16 17 18 19 20 21 22 23 24 25 26 27 28 29 30 31 32 33 34 35 36 37 38 39 40 41 42 43 44 45 46 47 48 49 50
000
ASUS43 KLOT 221800
RWRIL

ILLINOIS REGIONAL WEATHER ROUNDUP
NATIONAL WEATHER SERVICE CHICAGO/ROMEOVILLE IL
100 PM CDT MON SEP 22 2014

NOTE: "FAIR" INDICATES FEW OR NO CLOUDS BELOW 12,000 FEET WITH NO
SIGNIFICANT WEATHER AND/OR OBSTRUCTIONS TO VISIBILITY.

* THESE STATIONS ARE NOT UNDER NWS QUALITY CONTROL. THEY ALSO MAY NOT
  REPORT WEATHER SUCH AS PRECIPITATION OR FOG.

ILZ001-002-007-009-015-016-024-221900-
NORTHWEST ILLINOIS

CITY           SKY/WX    TMP DP  RH WIND       PRES   REMARKS
MOLINE         SUNNY     65  43  44 CALM      30.30F
6HR MIN TEMP:  42; 6HR MAX TEMP:  66;

STERLING*      SUNNY     66  43  42 SW5       30.30F
$$

ILZ003-004-008-010-011-017-018-221900-
NORTH CENTRAL ILLINOIS

CITY           SKY/WX    TMP DP  RH WIND       PRES   REMARKS
ROCKFORD       SUNNY     64  43  46 SW6       30.30F
6HR MIN TEMP:  42; 6HR MAX TEMP:  65;

FREEPORT*      SUNNY     63  43  49 NW8       30.32S
ROCHELLE*      SUNNY     64  41  43 NW3       30.30F
$$

ILZ005-006-012>014-019>023-221900-
NORTHEAST ILLINOIS

CITY           SKY/WX    TMP DP  RH WIND       PRES   REMARKS
CHICAGO-OHARE  MOSUNNY   58  40  51 CALM      30.28F
6HR MIN TEMP:  47; 6HR MAX TEMP:  58;

CHICAGO-MIDWAY MOSUNNY   65  44  46 NW5       30.28F
6HR MIN TEMP:  48; 6HR MAX TEMP:  65;

AURORA         SUNNY     63  40  42 NE3       30.29F
6HR MIN TEMP:  39; 6HR MAX TEMP:  63;

LANSING*       SUNNY     61  41  48 N3        30.29S
WAUKEGAN       SUNNY     61  43  51 CALM      30.27F
6HR MIN TEMP:  42; 6HR MAX TEMP:  61;

DUPAGE AIRPORT SUNNY     65  41  41 N8        30.28F
6HR MIN TEMP:  41; 6HR MAX TEMP:  65;

WHEELING       SUNNY     64  41  42 CALM      30.29F
6HR MIN TEMP:  44; 6HR MAX TEMP:  65;

NORTHERLY ISL    N/A     57  45  64 E6          N/A
$$

LMZ740>746-221900-
SOUTHERN LAKE MICHIGAN

STATION/POSITION SKY/WX   TEMP    WIND        PRES    VSBY  WAVE
                          AIR SEA DIR/SP/G                  HT/PER
                          (F)     (DEG/KT/KT) (MB)    (MI)  (FT/S)
SOUTHERN BUOY              54 62  270/  8/ 10 1025.6S         3/ 7
WAUKEGAN HARBOR            61     140/  7/  7   N/A
HARRISON CRIB              54      20/  6/  7   N/A
BURNHAM HARBOR             57      80/  4/  8   N/A
CALUMET HARBOR             56      40/  5/  7 1024.4F
MICHIGAN CITY              57     320/  8/ 12   N/A
MICHIGAN CITY 6N           56 64  350/  6/ 10   N/A           4/ 7
ST. JOSEPH                 55 65  340/  6/ 10   N/A           3/ 5
$$

ILZ025>027-034>036-040-047-049-050-058-095>099-221900-
WEST-CENTRAL ILLINOIS

CITY           SKY/WX    TMP DP  RH WIND       PRES   REMARKS
QUINCY         SUNNY     68  43  40 NW8       30.30F
GALESBURG*     SUNNY     70  48  45 NE3       30.31S
MACOMB*        SUNNY     66  39  36 N3        30.32F HAZE
$$

ILZ028>032-037-038-041>044-048-051>054-059>061-221900-
CENTRAL ILLINOIS

CITY           SKY/WX    TMP DP  RH WIND       PRES   REMARKS
DECATUR        SUNNY     67  45  45 N6        30.29F
PEORIA         SUNNY     67  45  45 E6        30.30F
6HR MIN TEMP:  47; 6HR MAX TEMP:  67;

SPRINGFIELD    SUNNY     69  46  43 N6        30.30F
6HR MIN TEMP:  48; 6HR MAX TEMP:  69;

TAYLORVILLE    NOT AVBL
$$

ILZ033-039-045-046-055>057-062-063-221900-
EAST-CENTRAL ILLINOIS

CITY           SKY/WX    TMP DP  RH WIND       PRES   REMARKS
CHAMPAIGN      SUNNY     65  46  50 N5        30.29F
MATTOON        SUNNY     67  46  47 NW8       30.28S
$$

ILZ079-100>102-221900-
SOUTHWEST ILLINOIS

CITY           SKY/WX    TMP DP  RH WIND       PRES   REMARKS
BELLEVILLE     SUNNY     70  49  48 NW9       30.28F
CAHOKIA*       SUNNY     71  48  43 MISG      30.29F
SPARTA*        SUNNY     69  48  48 N3        30.30F
$$

ILZ064>066-069>071-074>076-080>082-084>086-088>090-092>094-221900-
SOUTH-CENTRAL ILLINOIS

CITY           SKY/WX    TMP DP  RH WIND       PRES   REMARKS
CARBONDALE     SUNNY     69  47  45 NW8       30.28F
6HR MIN TEMP:  49; 6HR MAX TEMP:  70;

MARION         SUNNY     70  46  43 N12       30.28F
MT. VERNON     SUNNY     66  46  48 NE7       30.29F
SALEM*         SUNNY     68  51  53 NW3       30.29F
$$

ILZ067-068-072-073-078-083-087-091-221900-
SOUTHEAST ILLINOIS

CITY           SKY/WX    TMP DP  RH WIND       PRES   REMARKS
LAWRENCEVILLE  SUNNY     68  48  48 VRB7      30.27F
ROBINSON*      SUNNY     67  48  50 N6        30.28F
$$

ABBREVIATIONS USED IN REMARKS
   TC - TEMPERATURE IN CELSIUS
  WCI - WIND CHILL INDEX
   HX - HEAT INDEX
  VSB - VISIBILITY
$$



USA.gov is the U.S. government's official web portal to all federal, state and local government web resources and services.